#timestamp,LO_Frequency,Hit,StdDev 
1682856015.4,286046999.6,N
1682856035.3,286046996.5,N
1682856055.1,286046996.6,N
1682856056.0,286046996.6,N
1682856075.8,286046997.0,N
1682856095.7,286046997.8,N
1682856115.5,286046997.3,N
1682856135.3,286046996.6,N
1682856155.2,286046996.7,N
1682856175.0,286046999.5,N
1682856175.9,286046999.5,N
1682856195.8,286046998.7,N
1682856215.6,286046999.6,N
1682856235.4,286046999.6,N
1682856255.3,286046998.9,N
1682856275.1,286046999.2,N
1682856295.9,286046997.0,N
1682856315.7,286046998.9,N
1682856335.5,286046998.9,N
1682856355.4,286047001.2,N
1682856375.2,286046998.9,N
1682856395.0,286046999.1,N
1682856395.9,286046999.1,N
1682856415.8,286046996.8,N
1682856435.6,286046997.8,N
1682856455.5,286046997.9,N
1682856475.3,286046996.3,N
1682856495.1,286046994.3,Y
1682856515.9,286046996.0,P
1682856535.7,286046993.3,P
1682856555.5,286046995.0,N
1682856575.4,286046995.1,N
1682856595.2,286046996.4,N
1682856615.1,286046993.8,Y
1682856616.0,286046993.8,P
1682856635.8,286046999.5,N
1682856655.6,286046999.5,N
1682856675.5,286046998.8,N
1682856695.3,286047001.1,N
1682856715.1,286046998.4,N
1682856735.9,286047001.1,N
1682856755.7,286046996.9,N
1682856775.6,286046999.4,N
1682856795.4,286046998.3,N
1682856815.2,286046998.5,N
1682856835.1,286046999.1,N
1682856836.0,286046999.1,N
1682856855.8,286046996.8,N
1682856875.6,286046995.4,N
1682856895.5,286046998.0,N
1682856915.3,286046997.0,N
1682856935.2,286046996.5,N
1682856955.9,286046996.8,N
1682856975.7,286046996.9,N
1682856995.6,286046998.9,N
1682857015.4,286046999.4,N
1682857035.2,286046999.0,N
1682857055.1,286046999.4,N
1682857056.0,286046999.4,N
1682857075.8,286046996.9,N
1682857095.7,286046997.9,N
1682857115.5,286046997.5,N
1682857135.3,286046996.5,N
1682857155.2,286046996.5,N
1682857175.9,286046999.0,N
1682857225.8,286046997.2,E
1682857235.7,286046996.6,N
1682857255.5,286046998.8,P
1682857275.4,286047000.7,N
1682857295.2,286047000.6,N
1682857315.0,286046998.8,N
1682857315.9,286046998.8,N
1682857335.8,286046999.5,N
1682857355.6,286046998.9,N
1682857375.5,286046999.4,N
1682857395.3,286046999.4,N
1682857415.1,286046999.2,N
1682857435.9,286046997.1,N
1682857455.7,286046996.6,Y
1682857475.5,286046998.4,P
1682857495.4,286046998.1,P
1682857515.2,286046998.7,P
1682857535.1,286046997.8,Y
1682857536.0,286046997.8,P
1682857555.8,286047000.8,N
1682857575.6,286046998.6,N
1682857595.5,286047000.9,N
1682857615.3,286046998.1,N
1682857635.1,286046999.2,N
1682857655.9,286046997.4,N
1682857675.7,286046996.7,N
1682857695.6,286046995.0,Y
1682857715.4,286046998.7,P
1682857735.2,286046999.1,P
1682857755.1,286046996.7,P
1682857756.0,286046996.7,Y
1682857775.8,286047002.2,P
1682857795.7,286047002.4,N
1682857815.5,286047001.4,N
1682857835.3,286047001.6,N
1682857855.2,286047002.3,N
1682857875.0,286047000.4,N
1682857875.9,286047000.4,N
1682857895.7,286047001.2,N
1682857915.6,286046996.5,N
1682857935.4,286046998.0,N
1682857955.3,286046997.5,N
1682857975.1,286046997.3,N
1682857976.0,286046997.3,N
1682857995.8,286046996.7,N
1682858015.7,286046996.6,N
1682858035.5,286046996.8,N
1682858055.3,286046997.0,N
1682858075.2,286046998.3,N
1682858095.0,286046999.3,N
1682858095.9,286046999.3,N
1682858115.8,286046997.4,N
1682858135.6,286046997.8,N
1682858155.4,286046999.4,N
1682858175.3,286046999.3,N
1682858195.1,286047000.9,N
1682858215.9,286047001.5,N
1682858235.7,286047002.2,N
1682858255.5,286046999.9,N
1682858275.4,286046999.8,N
1682858295.2,286047000.7,N
1682858315.0,286047002.0,N
1682858315.9,286047002.0,N
1682858335.8,286047003.4,N
1682858355.6,286047003.7,N
1682858375.5,286047005.1,N
1682858395.3,286047007.6,Y
1682858415.1,286047004.6,P
1682858435.9,286047006.6,N
1682858455.7,286047008.4,N
1682858475.5,286047010.6,Y
1682858495.4,286047003.9,P
1682858515.2,286047003.9,P
1682858535.1,286047003.9,P
1682858536.0,286047003.9,Y
1682858555.8,286047000.4,P
1682858575.6,286046998.5,N
1682858595.5,286047002.3,N
1682858615.3,286047002.0,N
1682858635.1,286046999.7,N
1682858655.9,286047000.6,N
1682858675.7,286046999.1,N
1682858695.6,286046997.7,N
1682858715.4,286046998.0,N
1682858735.2,286046997.4,N
1682858755.1,286046998.6,N
1682858756.0,286046998.6,N
1682858775.8,286046998.5,N
1682858795.6,286047000.9,N
1682858815.5,286047000.0,N
1682858835.3,286046998.2,N
1682858855.1,286046998.1,N
1682858875.9,286046998.4,N
1682858895.7,286046998.8,N
1682858915.6,286046997.2,N
1682858935.4,286046997.7,N
1682858955.2,286046996.8,N
1682858975.1,286046999.4,N
1682858976.0,286046999.4,N
1682858995.8,286046999.4,N
1682859015.6,286046998.3,N
1682859035.5,286046998.5,N
1682859055.3,286046999.0,N
1682859075.2,286046996.6,N
1682859095.9,286046997.7,N
1682859115.7,286046998.0,N
1682859135.6,286046997.6,N
1682859155.4,286046996.9,N
1682859175.2,286046997.2,N
1682859195.1,286046997.3,N
1682859196.0,286046997.3,N
1682859215.8,286046997.3,N
1682859235.7,286046996.5,Y
1682859255.5,286047001.1,P
1682859275.3,286047000.3,N
1682859295.2,286046998.7,N
1682859315.0,286046997.2,N
1682859315.9,286046997.2,N
1682859335.7,286046998.4,N
1682859355.6,286046996.8,N
1682859375.4,286046995.4,Y
1682859395.3,286046997.1,P
1682859415.1,286046997.7,P
1682859416.0,286046997.7,P
1682859435.8,286046999.4,N
1682859455.7,286046996.6,Y
1682859475.5,286046999.8,P
1682859495.4,286047000.0,N
1682859515.2,286046999.9,N
1682859535.0,286047000.2,N
1682859535.9,286047000.2,N
1682859555.8,286047001.6,N
1682859575.6,286047002.8,N
1682859595.4,286047002.2,N
